Other Surface Observations
Issued by NWS

Home | Current Version | Previous Version | Text Only | Print | Product List | Glossary On
Versions: 1 2 3 4 5 6 7 8 9 10 11 12 13 14 15 16 17 18 19 20 21 22 23 24 25 26 27 28 29 30 31 32 33 34 35 36 37 38 39 40 41 42 43 44 45 46 47 48 49 50
540
SXUS52 KTAE 282005
OSOTAE
OSOTAE
North Florida/South Alabama/Southwest Georgia Weather Roundup
National Weather Service Tallahassee Florida
400 PM EDT TUE MAR 28 2017

Note: "fair" indicates few or no clouds below 12,000 feet with no
significant weather and/or obstructions to visibility.

!FLZ017-115-028-034-025-282100
...North Florida...

CITY           SKY/WX    TMP DP  RH WIND       PRES   REMARKS
TALLAHASSEE      N/A     83  58  42 VRB6      29.98F
APALACHICOLA   SUNNY     77  68  73 SW14      30.02F
PERRY          SUNNY     81  59  47 SW12G17   30.02F
CROSS CITY     MOSUNNY   82  59  44 SW8G17    30.00F
JACKSONVILLE   PTSUNNY   84  55  36 NW9       29.96F
$$

!FLZ112-006-005-002-011-282100
...Florida Panhandle...

CITY           SKY/WX    TMP DP  RH WIND       PRES   REMARKS
MARIANNA       MOSUNNY   84  60  44 W10       29.97F
BONIFAY        LGT RAIN  76  70  82 S6        30.00
PANAMA CITY NW FAIR      79  64  60 S12       29.99F
TYNDALL AFB    NOT AVBL
TYND DRONE APT FAIR      75  69  82 SW8       30.02F
DE FUNIAK SPR  FAIR      79  64  58 SW12G17   30.00F
EGLIN AFB      PTSUNNY   77  68  75 S13       30.00F
DESTIN         MOSUNNY   79  74  84 S8        30.01F
HURLBURT       MOSUNNY   76  64  64 SW12G17   30.00F
CRESTVIEW      PTSUNNY   81  64  56 SW15G21   30.01F
PENSACOLA      MOSUNNY   80  68  66 SW14      30.00F
$$

!ALZ063-066-282100
...South Alabama...

CITY           SKY/WX    TMP DP  RH WIND       PRES   REMARKS
DOTHAN         MOSUNNY   84  59  42 W9G16     30.01F
OZARK CAIRNS   MOSUNNY   83  59  43 CALM      29.97F
FT RUCKER HELI MOSUNNY   84  56  39 W10       29.97F
RUCKER HELI 3  FAIR      83  56  39 W3        29.97F
RUCKER HELI 2  PTSUNNY   83  55  38 W7        29.96F
FLORALA APT    CLOUDY    79  63  57 S13       30.00F
ANDALUSIA      MOSUNNY   87  59  38 NW9       29.97F
TROY           MOSUNNY   83  61  47 VRB6      29.98F
EUFALA         FAIR      84  59  42 VRB6      29.95F
MOBILE         CLOUDY    80  64  58 S14       29.98F
$$

!GAZ120>161-282100
...Southwest and South Central Georgia...

CITY           SKY/WX    TMP DP  RH WIND       PRES   REMARKS
THOMASVILLE    FAIR      82  64  54 SW7       30.00F
BAINBRIDGE     SUNNY     84  61  45 SW8       29.98F
MOODY AFB      SUNNY     83  57  41 SW12      29.96F
VALDOSTA       MOSUNNY   83  59  44 MISG      29.98F
MOULTRIE       PTSUNNY   81  61  50 CALM      29.99F
BLAKELY        SUNNY     86  55  35 CALM      29.97F
ALBANY         MOSUNNY   84  59  42 VRB6      29.99F
TIFTON         FAIR      81  59  47 W9        29.98F
FITZGERALD     FAIR      82  60  47 W8        29.99F
CORDELE        FAIR      87  57  36 W14G20    29.97F
AMERICUS       FAIR      82  52  34 W8G17     29.98F
HOMERVILLE     FAIR      84  59  42 W10G20    29.98F
$$

!GMZ750-755-770-775-282100
...Coastal and Buoy Obs...

STATION/POSITION TIME  TEMP    WIND        PRES    VSBY  WAVE
                       AIR SEA DIR/SP/G                  HT/PER
                 (UTC) (F)     (DEG/KT/KT) (MB)    (MI)  (FT/S)
KEATON BEACH     2000   71     230/  6/  7 1016.5F
CEDAR KEY        1900   73     250/  6/  8 1017.8F
C TOWER          2000   70     220/  6/  6 1017.4F
APALACHICOLA BUO NOT AVBL
PANAMA CITY BUOY NOT AVBL
MOBILE BUOY      NOT AVBL
ORANGE BCH AL BU NOT AVBL
$$




USA.gov is the U.S. government's official web portal to all federal, state and local government web resources and services.